GW4409 Weather Reports


Display with metric or nautical units.
time (UTC)temp
F
wind
direction
speed
MPH
gust
MPH
rain 1hr
in
rain 24hr
in
rain mn
in
humidity
%
barometer
mb
20260505101903 56 294 0.0 1.0 0.00 0.00 0.00 81 1011.0
20260505101403 55 287 0.0 2.0 0.00 0.00 0.00 81 1010.9
20260505100904 54 248 1.0 3.0 0.00 0.00 0.00 84 1010.9
20260505095903 55 55 0.0 2.0 0.00 0.00 0.00 83 1010.7
20260505095404 55 63 0.0 1.0 0.00 0.00 0.00 83 1010.7
20260505094904 55 54 0.0 1.0 0.00 0.00 0.00 82 1010.6
20260505093904 55 298 0.0 1.0 0.00 0.00 0.00 82 1010.6
20260505093403 55 43 0.0 1.0 0.00 0.00 0.00 82 1010.6
20260505092404 56 85 0.0 3.0 0.00 0.00 0.00 80 1010.5
20260505091903 56 256 0.0 1.0 0.00 0.00 0.00 81 1010.5
20260505091404 56 255 0.0 0.0 0.00 0.00 0.00 80 1010.5
20260505090904 56 307 0.0 2.0 0.00 0.00 0.00 80 1010.4
20260505090404 56 227 0.0 2.0 0.00 0.00 0.00 79 1010.4
20260505085404 57 170 0.0 0.0 0.00 0.00 0.00 77 1010.4
20260505084905 57 175 0.0 2.0 0.00 0.00 0.00 77 1010.4
20260505084403 58 223 0.0 2.0 0.00 0.00 0.00 76 1010.4
20260505083905 58 225 0.0 2.0 0.00 0.00 0.00 76 1010.4
20260505083405 59 176 0.0 2.0 0.00 0.00 0.00 74 1010.5
20260505082905 59 202 0.0 2.0 0.00 0.00 0.00 73 1010.4
20260505082405 60 232 0.0 2.0 0.00 0.00 0.00 72 1010.4
20260505081906 60 268 0.0 0.0 0.00 0.00 0.00 71 1010.4
20260505081405 60 268 1.0 3.0 0.00 0.00 0.00 71 1010.4
20260505080405 60 239 1.0 2.0 0.00 0.00 0.00 70 1010.5
20260505075905 61 189 0.0 2.0 0.00 0.00 0.00 70 1010.6
20260505075405 61 186 1.0 3.0 0.00 0.00 0.00 69 1010.6
20260505074405 61 226 2.0 5.0 0.00 0.00 0.00 69 1010.6
20260505073905 61 235 1.0 3.0 0.00 0.00 0.00 69 1010.6
20260505073405 61 260 1.0 3.0 0.00 0.00 0.00 69 1010.6
20260505072905 61 208 1.0 5.0 0.00 0.00 0.00 68 1010.6
20260505072405 61 188 0.0 3.0 0.00 0.00 0.00 68 1010.5
20260505071905 61 219 1.0 3.0 0.00 0.00 0.00 68 1010.4
20260505071407 61 217 2.0 5.0 0.00 0.00 0.00 67 1010.4
20260505070905 61 209 2.0 6.0 0.00 0.00 0.00 67 1010.4
20260505070405 61 221 1.0 6.0 0.00 0.00 0.00 67 1010.4
20260505065905 61 223 1.0 3.0 0.00 0.00 0.00 67 1010.3
20260505064905 62 284 1.0 6.0 0.00 0.00 0.00 66 1010.3
20260505064405 62 236 1.0 3.0 0.00 0.00 0.00 65 1010.3
20260505063405 62 230 2.0 9.0 0.00 0.00 0.00 65 1010.2
20260505062905 62 214 2.0 6.0 0.00 0.00 0.00 65 1010.2
20260505062406 62 214 2.0 6.0 0.00 0.00 0.00 65 1010.2
20260505061905 62 210 2.0 6.0 0.00 0.00 0.00 64 1010.3
20260505060405 62 201 2.0 6.0 0.00 0.00 0.00 64 1010.3
20260505055405 62 178 2.0 7.0 0.00 0.00 0.00 63 1010.3
20260505054905 62 204 3.0 9.0 0.00 0.00 0.00 63 1010.3
20260505054406 62 212 3.0 8.0 0.00 0.00 0.00 64 1010.2
20260505053905 62 219 3.0 7.0 0.00 0.00 0.00 64 1010.3
20260505053405 62 234 3.0 8.0 0.00 0.00 0.00 64 1010.3
20260505052906 62 255 1.0 5.0 0.00 0.00 0.00 64 1010.3
20260505052404 62 277 2.0 6.0 0.00 0.00 0.00 64 1010.4
20260505051905 62 181 2.0 5.0 0.00 0.00 0.00 64 1010.4
20260505051405 62 245 2.0 6.0 0.00 0.00 0.00 64 1010.4
20260505041405 62 174 2.0 7.0 0.00 0.00 0.00 62 1010.4
20260505040905 62 192 1.0 3.0 0.00 0.00 0.00 61 1010.3
20260505035904 62 178 2.0 5.0 0.00 0.00 0.00 59 1010.3
20260505035405 62 171 1.0 6.0 0.00 0.00 0.00 59 1010.3
20260505034907 62 214 2.0 3.0 0.00 0.00 0.00 57 1010.4
20260505034405 62 187 1.0 6.0 0.00 0.00 0.00 56 1010.4
20260505033906 62 193 2.0 6.0 0.00 0.00 0.00 56 1010.4
20260505033404 62 189 1.0 3.0 0.00 0.00 0.00 56 1010.4
20260505032405 62 171 1.0 3.0 0.00 0.00 0.00 55 1010.4
20260505031906 62 187 2.0 6.0 0.00 0.00 0.00 54 1010.4
20260505030905 63 163 1.0 5.0 0.00 0.00 0.00 54 1010.4
20260505030406 63 174 2.0 3.0 0.00 0.00 0.00 54 1010.5
20260505025904 63 171 1.0 3.0 0.00 0.00 0.00 54 1010.6
20260505025405 63 195 1.0 5.0 0.00 0.00 0.00 54 1010.6
20260505024905 62 204 1.0 6.0 0.00 0.00 0.00 54 1010.6
20260505024408 62 173 1.0 6.0 0.00 0.00 0.00 55 1010.7
20260505023905 62 333 0.0 5.0 0.00 0.00 0.00 54 1010.7
20260505023405 62 186 1.0 6.0 0.00 0.00 0.00 54 1010.8
20260505022907 61 198 0.0 2.0 0.00 0.00 0.00 57 1010.8
20260505022405 62 213 0.0 1.0 0.00 0.00 0.00 56 1010.7
20260505021905 62 202 0.0 1.0 0.00 0.00 0.00 55 1010.7
20260505020905 63 243 0.0 1.0 0.00 0.00 0.00 54 1010.7
20260505015906 64 167 0.0 1.0 0.00 0.00 0.00 53 1010.7
20260505015405 64 170 1.0 5.0 0.00 0.00 0.00 52 1010.7
20260505014906 64 173 1.0 3.0 0.00 0.00 0.00 52 1010.7
20260505014405 63 184 0.0 3.0 0.00 0.00 0.00 52 1010.7
20260505013905 62 190 2.0 5.0 0.00 0.00 0.00 52 1010.6
20260505013405 62 186 0.0 3.0 0.00 0.00 0.00 55 1010.6
20260505012905 62 219 0.0 1.0 0.00 0.00 0.00 55 1010.7
20260505012405 62 180 0.0 2.0 0.00 0.00 0.00 54 1010.7
20260505011905 62 238 0.0 0.0 0.00 0.00 0.00 54 1010.6
20260505010905 63 221 0.0 0.0 0.00 0.00 0.00 53 1010.4
20260505010405 63 221 0.0 1.0 0.00 0.00 0.00 52 1010.3
20260505005905 64 244 0.0 1.0 0.00 0.00 0.00 52 1010.2
20260505005406 64 248 0.0 0.0 0.00 0.00 0.00 51 1010.2
20260505004905 65 248 0.0 1.0 0.00 0.00 0.00 50 1010.1
20260505004406 65 234 0.0 2.0 0.00 0.00 0.00 49 1010.0
20260505003906 66 212 0.0 2.0 0.00 0.00 0.00 48 1010.0
20260505003406 66 190 1.0 3.0 0.00 0.00 0.00 46 1010.0
20260505002905 67 196 0.0 3.0 0.00 0.00 0.00 46 1010.0
20260505002404 67 204 1.0 5.0 0.00 0.00 0.00 45 1009.9
20260505001904 67 211 2.0 6.0 0.00 0.00 0.00 44 1009.9
20260505001404 68 198 0.0 6.0 0.00 0.00 0.00 44 1009.9
20260505000907 68 181 1.0 3.0 0.00 0.00 0.00 43 1009.9
20260505000406 68 202 2.0 3.0 0.00 0.00 0.00 43 1009.9
20260504235904 69 197 1.0 5.0 0.00 0.00 0.00 42 1009.8
20260504235405 69 202 1.0 6.0 0.00 0.00 0.00 43 1009.8
20260504234904 69 216 2.0 6.0 0.00 0.00 0.00 42 1009.7
20260504234406 69 196 2.0 5.0 0.00 0.00 0.00 42 1009.7
20260504233905 69 188 3.0 6.0 0.00 0.00 0.00 41 1009.6
20260504233406 70 231 2.0 7.0 0.00 0.00 0.00 41 1009.6
20260504232904 70 189 2.0 6.0 0.00 0.00 0.00 41 1009.5
20260504232405 70 239 2.0 6.0 0.00 0.00 0.00 40 1009.5
20260504231404 70 227 2.0 8.0 0.00 0.00 0.00 40 1009.5
20260504230404 71 187 4.0 8.0 0.00 0.00 0.00 39 1009.4
20260504225905 71 203 4.0 8.0 0.00 0.00 0.00 39 1009.3
20260504225405 72 201 5.0 10.0 0.00 0.00 0.00 38 1009.3
20260504224407 72 240 3.0 9.0 0.00 0.00 0.00 39 1009.4
20260504223905 72 221 2.0 6.0 0.00 0.00 0.00 38 1009.5
20260504223405 72 183 2.0 5.0 0.00 0.00 0.00 39 1009.5
20260504222904 72 178 5.0 9.0 0.00 0.00 0.00 39 1009.5
20260504222404 72 229 2.0 9.0 0.00 0.00 0.00 39 1009.5
20260504221904 72 219 3.0 6.0 0.00 0.00 0.00 39 1009.5
20260504221407 73 204 3.0 8.0 0.00 0.00 0.00 39 1009.5
20260504220905 73 187 3.0 7.0 0.00 0.00 0.00 39 1009.5
20260504220405 72 224 3.0 9.0 0.00 0.00 0.00 38 1009.5
20260504215905 73 254 5.0 10.0 0.00 0.00 0.00 39 1009.6
20260504215405 73 204 2.0 6.0 0.00 0.00 0.00 38 1009.6
20260504214905 73 171 3.0 8.0 0.00 0.00 0.00 39 1009.6
20260504214404 73 198 3.0 9.0 0.00 0.00 0.00 39 1009.6
20260504213906 72 243 2.0 13.0 0.00 0.00 0.00 40 1009.6
20260504213404 72 196 3.0 7.0 0.00 0.00 0.00 38 1009.7
20260504212907 72 189 3.0 10.0 0.00 0.00 0.00 39 1009.8
20260504212404 73 201 3.0 9.0 0.00 0.00 0.00 38 1009.8
20260504211905 73 254 3.0 7.0 0.00 0.00 0.00 38 1009.7
20260504210406 72 227 3.0 9.0 0.00 0.00 0.00 38 1009.7
20260504205905 72 191 3.0 7.0 0.00 0.00 0.00 39 1009.7
20260504205404 72 264 4.0 8.0 0.00 0.00 0.00 38 1009.7
20260504204905 73 230 4.0 9.0 0.00 0.00 0.00 38 1009.9
20260504204404 73 227 3.0 8.0 0.00 0.00 0.00 39 1009.9
20260504203904 73 219 4.0 7.0 0.00 0.00 0.00 38 1009.8
20260504203405 73 180 2.0 9.0 0.00 0.00 0.00 38 1009.7
20260504202906 73 210 5.0 9.0 0.00 0.00 0.00 38 1009.7
20260504202404 72 208 3.0 8.0 0.00 0.00 0.00 39 1009.8
20260504201905 73 199 3.0 7.0 0.00 0.00 0.00 38 1009.8
20260504201404 73 185 3.0 8.0 0.00 0.00 0.00 38 1009.9
20260504200904 73 230 3.0 8.0 0.00 0.00 0.00 38 1009.9
20260504200404 72 163 3.0 9.0 0.00 0.00 0.00 38 1009.9
20260504195905 72 270 3.0 8.0 0.00 0.00 0.00 38 1009.9
20260504195404 72 238 4.0 8.0 0.00 0.00 0.00 38 1010.0
20260504194905 72 198 5.0 8.0 0.00 0.00 0.00 39 1010.0
20260504194405 72 182 3.0 9.0 0.00 0.00 0.00 38 1010.0
20260504193904 72 212 3.0 9.0 0.00 0.00 0.00 38 1010.0
20260504193406 72 231 4.0 9.0 0.00 0.00 0.00 38 1010.1
20260504192904 72 207 5.0 9.0 0.00 0.00 0.00 38 1010.1
20260504192404 72 193 3.0 12.0 0.00 0.00 0.00 38 1010.1
20260504191904 71 277 3.0 6.0 0.00 0.00 0.00 38 1010.3
20260504191404 71 254 5.0 8.0 0.00 0.00 0.00 39 1010.4
20260504190904 71 172 4.0 10.0 0.00 0.00 0.00 38 1010.3
20260504190404 72 173 5.0 9.0 0.00 0.00 0.00 40 1010.5
20260504185904 71 199 2.0 8.0 0.00 0.00 0.00 39 1010.5
20260504184904 71 299 3.0 8.0 0.00 0.00 0.00 38 1010.6
20260504184405 71 239 3.0 9.0 0.00 0.00 0.00 39 1010.6
20260504183404 70 243 3.0 7.0 0.00 0.00 0.00 40 1010.8
20260504182904 70 207 5.0 9.0 0.00 0.00 0.00 39 1010.9
20260504182404 70 194 4.0 10.0 0.00 0.00 0.00 39 1010.9
20260504181905 69 291 5.0 12.0 0.00 0.00 0.00 40 1011.1
20260504181405 70 187 3.0 9.0 0.00 0.00 0.00 40 1011.1
20260504180405 70 214 3.0 8.0 0.00 0.00 0.00 39 1011.2
20260504175906 70 242 3.0 7.0 0.00 0.00 0.00 39 1011.3
20260504175406 70 265 5.0 12.0 0.00 0.00 0.00 40 1011.4
20260504174405 69 211 5.0 12.0 0.00 0.00 0.00 40 1011.5
20260504173904 69 210 5.0 12.0 0.00 0.00 0.00 40 1011.6
20260504173405 69 201 5.0 9.0 0.00 0.00 0.00 40 1011.6
20260504172904 70 194 4.0 8.0 0.00 0.00 0.00 41 1011.6
20260504171904 69 207 3.0 8.0 0.00 0.00 0.00 41 1011.7
20260504171406 68 204 3.0 8.0 0.00 0.00 0.00 43 1011.8
20260504170906 69 241 5.0 8.0 0.00 0.00 0.00 41 1011.9
20260504170405 68 230 3.0 12.0 0.00 0.00 0.00 42 1011.9
20260504160404 66 201 4.0 9.0 0.00 0.00 0.00 41 1012.7
20260504150903 64 211 4.0 8.0 0.00 0.00 0.00 45 1013.3
20260504150405 64 228 3.0 10.0 0.00 0.00 0.00 47 1013.3
20260504140904 61 191 4.0 9.0 0.00 0.00 0.00 55 1013.5